Showing default

EXO-0, 59175

Orbit data source: Space-Track

EXO-0, 59175 is a payload satellite owned by Exotrail (FR) in SSO that was launched on Sat, 11 Nov 2023 UTC via an FALCON 9 launch vehicle from the Air Force Western Test Range (AFWTR). Payload-class satellites include a variety of spacecraft equipped with specific instruments for various scientific and technological missions. These include communications satellites like Starlink; space stations such as the ISS; scientific satellites like the Hubble; Earth observation satellites from companies like Planet Labs, Umbra, and HawkEye 360; GPS; miniature CubeSats for education and research; and military/defense satellites.

Loading next visibility...
Identifier
59175, 2023-174DK
Orbit
SSO
Country
Flag of FRFR
Related business
Manufacturer
Endurosat
Mission
Operational Commercial Technology
Bus & Motor
CUBESAT 8U, Unknown motor
Mass
~20 kg wet, ~20 kg dry
Launch date (UTC)
2023-11-11 (3 years ago)
Launch vehicle
FALCON 9
Launch site
Air Force Western Test Range (AFWTR)
Object type
Payload
Rocket body
Debris
Shape & HBR
Box, 0.2 m
Radar Cross Section
0.070 m², Medium (>0.1 m² and < 1m²)

Expand to show TLE details & history
Last TLE update: 10 hours ago

TLE from 10 hours ago
0 EXO-0
1 59175U 23174DK  26248.17030183  .00005336  00000-0  15486-3 0  9993
2 59175  97.3767 328.4373 0007450 237.5545 122.4979 15.35918771157313
Epoch: 2026-09-05T04:05Z
TLE epoch observation values (Epoch: 2026-09-05T04:05:14.078Z)
Latitude
0.00001°
Longitude
-77.15498°
Altitude
464.045 km
Speed
7.633 km/s
True Right ascension
21h 53m 44s
True Declination
0° 00' 00"
Sunlit
Object was in full shadow at epoch
Visualization orbit readout
Latitude
Unknown
Longitude
Unknown
Altitude
Unknown
Speed
Unknown
Apparent Right ascension
Unknown
Apparent Declination
Unknown
Sunlit
N/A
Visualization observer readout
Local Sidereal Time
06:26:38
Azimuth
Unknown
Elevation
Unknown
Doppler factor
Unknown
Orbital elements
Apogee altitude
460.227 km
Perigee altitude
450.045 km
Semi-major axis
6,833.273 km
Eccentricity
0.00075
Inclination
97.3767°
RAAN
328.4373°
Arg. of periapsis
237.5545°
True anomaly
122.56987°
Mean anomaly
122.4979°
Eccentric anomaly
122.53389°
Mean motion
3.84238 °/min
Orbital period
93.69 mins
BSTAR
0.00015486
Loading maneuver chart data...
Computing Atmospheric mass density...

Documentation

Showing up to 5 results
|